083  
ASUS42 KKEY 171011  
RWRKEY  
 
FLORIDA REGIONAL WEATHER ROUNDUP FOR THE FLORIDA KEYS  
NATIONAL WEATHER SERVICE KEY WEST FLORIDA  
500 AM EST WED JAN 17 2018  
   
..SOUTH FLORIDA AND THE KEYS
 
 
 
CITY SKY/WX TMP DP RH WIND PRES REMARKS
 
FORT MYERS FAIR 53 51 93 CALM 30.21S  
SW REGIONAL AP FAIR 52 52 100 CALM 30.22S  
NAPLES FAIR 53 50 89 NE5 30.21R  
MIAMI MOCLDY 63 54 72 N7 30.18S  
WEST KENDALL FAIR 59 53 80 N8 30.19R  
HOMESTEAD MOCLDY 61 60 97 NW9 30.17S  
MARATHON CLOUDY 65 56 72 N9 30.17S  
KEY WEST INTL CLOUDY 64 59 83 N12 30.18S  
   
..INTERNATIONAL WEATHER
 
 
 
CITY SKY/WX TMP DP RH WIND PRES REMARKS
 
NASSAU BAHAMAS NOT AVBL  
CANCUN MEXICO LGT RAIN 68 66 94 N9 30.15S  
COZUMEL MEXICO PTCLDY 70 55 60 N12 30.13S  
 
ADJACENT COASTAL WATERS...  
 
STATION/POSITION TIME SKY/WX TEMP WIND PRES WAVE
 
AIR SEA DIR/SP/G HT/PER  
(UTC) (F) (DEG/KT/KT) (MB) (FT/S)  
PULASKI SHOAL LI 1000 67 40/ 15/ 16 1022.5S  
SAND KEY 0950 65 1022.3R  
LONG KEY 0900 64 20/ 14 1021.4R  
MOLASSES REEF 1000 65 73 360/ 15/ 16 1021.2F  
FOWEY ROCKS 1000 65 71 340/ 14/ 15 1022.2R  
BUOY 42097 0930 73 N/A 3/ 5  
 

 
 
 
CLICK HERE TO GO TO PREVIOUS BULLETINS.

The Nexlab FL Page Main Text Page